GFSMW_700_spd_132.txt.gz
Wind_Speed
13 7 13 17 18 17 17 19 13 12 8 9 12 7 9 11 8 10 11 7 13 15 4 4 12 13 16 19 16 12 12 12 16 17 14 12 9 11 7 2 3 10 13
13 10 16 12 14 14 17 17 15 12 11 13 11 11 6 7 6 7 5 7 10 12 15 11 14 11 5 12 12 10 13 11 8 13 16 19 14 11 16 14 9 12 12
22 16 14 13 13 14 13 16 17 15 15 15 13 13 11 4 4 6 5 4 7 12 10 14 12 6 5 10 10 9 7 5 9 4 6 2 5 14 17 12 11 9 10
22 17 16 19 16 18 12 14 14 17 17 14 15 14 9 6 6 6 7 7 7 9 11 9 6 7 6 2 3 4 7 6 15 7 7 5 9 10 13 14 15 23 12
23 23 18 13 18 19 16 14 15 16 17 15 15 11 12 11 10 8 8 8 6 6 7 7 4 5 7 2 5 7 8 10 9 12 6 7 14 10 10 11 16 7 20
27 19 20 15 18 20 18 14 14 15 15 14 12 13 15 10 13 10 9 7 8 6 5 7 7 7 8 8 8 7 8 11 12 11 11 11 8 9 10 9 5 4 12
29 28 24 23 21 21 17 14 13 15 15 16 14 13 15 13 13 9 10 8 4 5 7 8 6 7 8 9 9 8 7 6 8 7 9 14 15 9 12 10 5 8 7
27 23 27 23 20 18 21 21 14 14 15 17 16 15 14 14 12 9 10 9 7 11 6 9 9 10 10 10 10 9 9 10 10 8 7 12 10 9 5 14 13 5 5
27 36 28 23 22 22 22 21 17 13 15 17 17 16 16 15 14 13 14 11 8 12 11 12 5 10 8 9 10 9 10 12 10 12 13 12 9 10 10 12 15 12 5
28 27 29 25 25 24 22 22 22 14 13 16 17 17 16 16 16 16 14 11 13 14 9 7 11 12 12 11 9 10 12 13 15 13 16 14 9 9 7 10 9 9 10
35 29 27 30 28 25 23 23 21 15 12 13 16 16 16 17 15 16 14 9 12 12 8 9 11 10 10 11 12 12 15 18 14 13 14 15 14 11 12 11 10 11 14
44 39 33 31 31 28 25 27 20 18 13 9 10 14 16 16 16 15 15 14 14 13 12 11 11 10 10 10 11 13 15 15 12 15 18 15 16 13 13 13 13 17 14
35 43 38 27 31 27 26 30 28 20 16 12 9 10 13 14 16 15 15 15 14 14 14 14 12 13 13 13 14 15 14 14 14 16 18 16 16 12 13 14 15 14 13
30 34 32 35 30 32 28 32 26 22 17 13 12 11 9 10 14 15 14 15 14 15 16 15 16 16 17 19 19 20 19 17 16 15 15 16 14 15 14 16 17 18 15
15 35 23 21 33 26 29 34 33 30 20 20 16 14 14 13 12 12 12 13 14 14 14 16 17 18 19 21 22 21 20 20 19 19 19 19 18 18 19 19 19 19 20
8 5 10 19 23 35 37 37 34 32 31 24 22 21 19 17 16 16 18 18 18 17 20 21 22 22 21 23 25 26 26 24 22 22 22 22 22 21 22 22 22 22 23
13 14 10 6 7 25 39 42 39 39 33 27 25 26 27 25 24 21 23 25 25 25 24 25 27 25 27 30 31 30 28 30 29 27 26 24 25 26 25 23 23 23 25
15 15 13 12 6 6 10 39 41 37 34 32 26 25 27 30 31 28 29 29 29 31 31 32 33 30 32 34 36 35 35 32 29 32 29 26 27 24 24 25 24 26 27
12 11 10 11 5 6 5 6 32 33 27 26 22 24 19 26 30 33 33 34 35 35 36 35 34 32 35 36 38 38 35 35 37 35 31 28 28 27 24 26 28 31 29
12 8 6 6 8 4 7 5 2 8 17 17 24 19 29 24 25 25 29 31 32 32 34 34 30 30 36 37 33 31 35 34 33 35 38 37 31 32 38 35 33 30 31
13 9 5 6 7 9 12 14 13 12 14 13 10 13 12 16 16 16 17 18 23 24 23 21 25 21 22 22 22 20 24 19 23 28 29 31 32 33 27 33 36 34 34
6 5 4 4 4 7 8 9 13 13 13 13 11 11 9 10 13 13 12 11 13 10 9 11 17 19 20 17 14 18 16 20 24 22 21 25 28 25 19 24 25 29 31
5 4 3 3 5 6 6 7 7 6 7 9 14 15 16 15 16 14 12 12 11 11 11 14 16 17 15 17 16 16 18 18 16 15 13 14 18 19 19 18 15 16 16
8 11 5 2 7 7 7 6 6 7 10 12 14 14 15 13 13 14 13 14 15 13 12 13 6 6 9 9 10 11 11 13 13 12 15 14 22 22 22 19 17 17 20
11 11 16 6 9 11 11 10 11 12 14 16 17 17 18 17 17 17 16 17 17 17 16 16 13 11 12 11 13 12 10 11 12 16 15 16 15 17 23 20 22 21 23
11 11 15 17 12 12 9 9 11 13 14 16 18 17 17 18 18 17 18 16 15 15 14 13 12 12 12 13 13 13 11 14 15 16 19 16 15 17 18 21 22 20 21

GFSMW_700_spd_135.txt.gz
Wind_Speed
7 10 15 19 21 12 14 9 9 11 13 12 11 11 12 7 7 9 9 13 10 8 7 6 18 24 12 20 12 15 12 11 14 14 12 10 7 10 12 14 17 18 19
16 9 9 15 15 11 16 16 12 14 10 13 15 13 12 10 10 11 12 9 9 4 6 6 11 16 18 11 14 8 11 10 11 16 10 5 12 11 12 16 18 12 10
14 15 10 14 10 6 10 15 12 12 12 11 10 11 11 10 12 8 5 4 7 8 6 7 14 9 10 9 8 11 4 7 7 9 10 9 4 4 8 11 11 6 4
18 13 15 14 13 6 5 9 13 17 15 16 11 12 12 12 12 10 10 7 7 6 8 9 9 9 9 7 4 4 5 8 10 5 3 13 13 4 10 11 10 11 14
26 21 20 14 8 7 5 5 12 15 15 15 12 12 12 12 13 7 10 9 5 4 4 5 3 2 5 4 2 4 7 8 8 5 2 4 6 7 10 11 10 10 11
29 24 21 18 14 12 9 7 12 18 16 13 14 14 12 12 8 8 10 11 8 8 8 6 6 8 6 7 7 5 6 9 10 9 9 6 8 8 7 9 13 8 9
23 28 26 26 18 14 11 8 11 17 17 16 15 14 11 10 8 10 9 7 4 9 8 9 7 7 7 7 7 7 8 7 6 5 8 11 7 10 14 7 7 11 8
36 29 34 29 22 15 13 11 8 16 17 17 16 14 13 12 11 9 9 7 8 7 5 5 4 6 6 6 8 8 8 8 8 8 7 9 9 12 9 4 7 5 9
38 28 40 31 31 21 15 10 9 13 17 18 18 17 15 14 13 12 8 10 9 3 6 6 4 5 6 1 3 4 6 5 5 6 6 6 7 10 11 12 12 11 3
35 28 32 29 33 24 18 14 11 12 16 18 18 18 17 17 16 14 9 8 9 8 5 8 6 4 4 2 2 3 4 4 7 7 7 5 2 4 8 7 10 11 7
40 31 35 36 29 28 25 19 15 15 17 17 17 19 18 17 16 14 14 10 9 8 8 7 9 6 2 4 5 5 5 6 7 9 7 7 7 6 11 10 9 11 12
35 35 42 38 40 35 29 24 18 17 15 16 18 18 18 17 16 13 14 12 11 10 7 7 7 6 7 6 5 7 8 8 7 7 9 9 9 6 7 9 11 10 10
39 39 35 41 40 37 31 26 23 19 16 15 15 17 18 17 16 15 16 15 14 12 10 9 8 8 9 8 10 11 13 13 11 11 11 9 8 7 7 8 9 12 12
36 45 38 33 38 34 37 31 27 23 24 15 14 11 13 14 14 13 14 13 11 10 10 10 8 7 10 12 13 13 12 13 14 14 15 14 12 11 11 12 12 13 13
16 31 49 47 37 36 40 37 35 27 25 17 16 15 12 10 9 9 9 8 7 6 5 6 8 10 11 13 13 13 13 14 11 12 15 15 16 16 15 14 15 17 18
4 15 20 40 37 30 32 34 32 31 32 23 25 22 17 13 10 8 9 9 9 10 11 11 12 12 16 18 20 21 20 19 20 22 17 17 17 19 18 18 18 18 18
10 5 6 17 44 34 31 18 20 27 30 21 31 22 20 13 12 13 13 14 16 17 17 18 19 21 23 23 24 23 24 26 26 27 27 22 22 19 19 19 21 24 23
13 13 5 7 3 3 3 23 30 29 31 30 20 24 21 18 19 18 20 21 23 22 23 24 24 27 28 28 27 27 27 28 31 32 29 27 25 22 21 22 22 21 21
9 15 12 8 10 10 8 8 28 39 36 34 35 28 22 22 21 19 20 24 28 27 27 28 28 30 31 31 32 34 35 34 34 32 29 28 27 28 25 24 26 26 27
6 7 11 13 13 14 10 5 6 23 30 35 33 29 28 25 17 19 20 22 22 24 26 28 27 26 24 24 25 25 27 25 27 24 24 27 27 28 25 25 28 30 30
8 9 9 12 14 15 18 8 5 1 9 11 9 5 3 20 25 19 21 18 16 16 17 20 22 21 18 16 14 15 17 15 17 17 17 17 20 23 23 23 24 22 23
3 5 8 7 8 7 8 8 8 7 7 8 8 6 6 5 9 11 11 9 9 9 8 8 8 10 14 14 14 12 13 13 13 14 17 16 15 12 14 16 17 19 20
3 1 5 6 6 7 6 5 5 8 10 12 11 12 11 9 11 13 12 11 10 6 5 5 8 5 3 6 6 6 6 5 6 10 8 7 7 11 16 12 13 12 15
10 8 7 6 6 6 8 9 9 9 9 9 10 9 9 12 12 11 13 13 11 10 9 9 7 6 5 6 7 7 6 6 6 5 8 12 12 14 11 9 14 14 14
9 8 9 12 8 9 10 11 11 12 11 11 12 14 15 16 15 14 14 14 15 14 13 12 13 13 12 11 9 11 11 11 10 11 14 14 16 13 14 14 13 13 14
11 12 12 11 17 14 8 11 16 17 17 17 16 18 18 19 18 16 14 14 13 12 11 12 11 11 10 12 12 11 11 11 13 16 18 17 17 15 15 17 18 17 19

GFSMW_700_spd_138.txt.gz
Wind_Speed
11 14 9 10 9 5 4 5 8 12 15 13 14 15 16 10 13 9 13 11 12 10 13 10 12 17 15 12 11 9 6 9 7 11 7 11 10 12 15 17 24 15 14
17 12 7 7 10 7 9 9 13 13 15 17 15 15 15 12 13 12 14 15 14 15 10 6 15 22 14 15 10 12 9 8 10 11 12 11 17 12 12 15 17 12 10
20 14 6 5 9 6 6 9 15 14 16 16 15 15 13 13 17 11 12 14 15 11 8 14 15 17 14 8 13 8 8 11 8 8 10 11 9 7 8 6 9 5 6
22 19 11 5 9 6 4 3 11 12 13 17 16 10 11 15 17 16 13 13 15 17 15 18 8 12 18 11 7 8 7 8 10 9 11 19 12 11 8 1 6 3 3
24 18 13 5 2 6 4 1 5 13 14 17 14 16 14 15 11 13 11 12 14 16 14 14 14 10 11 8 7 7 9 8 8 11 10 7 4 2 8 9 6 7 8
24 24 19 12 5 5 5 3 5 11 14 16 15 15 14 14 11 13 11 10 10 14 16 16 15 11 9 10 8 7 9 7 8 11 14 10 9 11 9 11 9 9 12
24 26 24 22 14 4 4 5 5 11 15 16 14 14 16 17 12 12 13 10 9 9 12 12 9 7 7 6 6 8 7 8 7 7 8 9 8 11 13 9 8 9 11
30 32 26 26 21 11 6 5 6 9 13 17 17 16 16 13 13 15 12 11 8 7 6 9 8 5 4 6 9 8 7 9 9 10 8 7 11 12 14 11 9 8 12
33 33 34 31 29 20 12 7 7 7 12 15 18 17 18 17 17 15 12 11 9 6 8 7 5 4 6 5 6 9 6 6 7 7 6 9 11 13 16 13 9 9 10
39 37 33 34 33 26 16 14 10 7 8 13 17 19 19 17 17 17 12 9 9 9 9 6 8 5 7 8 6 4 5 5 7 10 10 9 10 10 11 11 11 11 10
37 39 36 35 38 28 25 21 14 11 7 12 17 19 19 20 19 18 14 12 13 11 11 9 13 9 7 6 6 5 5 6 8 8 9 9 9 11 13 14 12 13 13
28 48 40 34 36 38 30 28 18 15 8 10 15 19 21 22 21 19 17 14 14 15 13 10 9 9 8 7 7 6 6 7 8 8 7 8 10 11 12 13 12 14 12
19 31 34 34 35 37 37 33 28 18 14 12 15 18 21 21 19 18 19 19 18 17 15 14 11 11 10 9 9 8 9 10 10 11 11 10 8 9 10 12 12 11 12
14 24 40 30 33 36 40 39 39 27 21 17 16 19 19 22 20 18 20 19 18 15 13 12 12 12 11 11 10 11 11 10 9 11 13 13 13 12 13 14 15 15 15
17 20 38 37 32 35 40 39 38 37 33 26 19 20 20 21 21 19 17 16 16 17 14 13 13 13 13 12 11 12 12 13 13 15 12 13 15 16 17 16 17 17 18
11 12 26 28 28 24 40 44 43 42 39 32 21 29 24 20 18 16 15 16 16 16 16 16 15 15 15 14 16 16 18 20 19 17 19 18 16 19 20 21 21 21 21
13 3 2 3 13 35 39 33 32 35 46 39 30 26 28 24 20 18 19 17 17 16 17 18 18 18 19 18 21 21 21 24 25 23 22 21 22 23 21 23 24 24 21
16 15 11 3 6 8 25 41 42 37 49 22 26 34 32 29 26 22 20 19 19 19 21 21 21 22 23 25 25 24 25 25 26 25 26 28 28 25 24 23 25 23 23
14 14 15 11 7 6 8 7 15 16 33 36 23 31 37 33 28 24 24 23 21 21 24 26 27 26 25 24 25 25 26 27 29 31 30 28 24 23 22 24 26 26 28
14 13 15 15 11 11 6 3 3 10 10 23 31 46 36 40 27 28 26 25 21 19 21 22 25 27 26 24 23 22 21 19 21 21 20 16 15 19 23 24 21 23 26
11 11 12 11 13 14 13 10 8 3 8 18 18 29 27 27 29 29 27 22 21 21 22 21 22 22 23 22 21 20 19 20 16 13 14 15 16 16 16 17 20 21 21
11 11 12 14 13 13 14 13 13 9 3 4 5 6 10 6 6 15 20 17 14 10 13 13 11 9 12 15 16 16 14 13 12 11 9 9 9 8 7 9 12 13 12
13 12 11 12 13 12 11 8 11 14 15 11 8 4 2 8 9 11 11 13 11 10 10 9 8 6 5 4 2 2 3 3 4 6 6 5 5 8 10 10 8 7 9
14 11 11 11 12 13 11 9 8 10 10 10 10 9 10 12 10 10 11 12 13 14 13 12 10 7 8 8 8 6 5 6 7 8 6 8 12 11 12 12 12 13 12
15 15 15 12 12 11 11 10 11 10 10 10 11 11 11 11 10 10 11 12 14 15 14 13 11 11 12 12 10 8 9 9 10 11 12 13 15 15 13 13 14 15 16
14 14 13 14 14 12 13 14 14 14 14 14 15 16 15 15 13 13 13 14 13 13 11 10 9 10 10 11 11 12 11 11 12 14 15 15 14 13 13 13 15 15 14

GFSMW_700_spd_141.txt.gz
Wind_Speed
6 5 6 6 5 4 1 2 6 11 11 12 14 17 15 10 11 10 11 9 12 11 8 12 13 10 13 14 10 9 9 8 7 8 8 9 10 13 21 17 20 20 7
9 8 10 8 6 6 5 4 7 8 10 13 13 16 15 11 11 12 13 14 16 11 15 12 12 16 16 11 10 9 9 8 7 10 11 12 14 15 11 16 14 8 2
12 8 9 2 6 6 4 4 5 5 13 12 12 13 14 14 12 12 13 14 13 11 9 12 12 19 15 11 13 11 11 14 9 10 11 11 11 7 7 8 9 12 9
20 13 10 4 6 6 5 2 3 8 9 11 11 11 12 12 14 13 15 13 11 13 6 9 11 14 20 10 5 8 13 15 10 12 11 9 8 17 15 9 12 14 8
26 18 11 7 6 6 5 3 1 8 10 16 13 10 13 15 13 11 15 15 16 15 16 11 8 10 16 9 10 11 10 10 9 12 12 9 9 8 6 9 11 10 9
32 25 15 13 9 10 9 5 1 5 13 15 12 10 8 13 12 14 16 15 16 17 14 13 11 7 7 11 11 9 9 9 11 12 12 12 14 14 12 8 8 10 6
34 33 25 17 15 12 9 9 5 4 12 14 15 13 14 15 13 12 12 14 13 15 16 14 12 11 11 11 12 11 10 8 9 9 8 10 12 13 10 7 8 8 9
32 33 27 24 15 15 12 8 7 3 8 13 14 13 13 14 13 12 12 12 12 15 16 15 14 13 12 10 10 10 10 9 9 9 11 13 11 11 10 11 10 9 11
34 31 29 27 22 19 15 10 8 6 6 10 14 15 16 16 16 17 14 12 11 10 13 14 14 13 10 7 8 8 8 9 9 10 12 12 11 11 12 12 11 10 10
32 32 33 29 25 26 19 15 11 7 6 10 14 16 16 16 17 16 13 13 12 12 11 12 13 11 8 8 9 8 6 8 9 11 13 15 12 11 13 12 13 13 13
30 35 39 35 32 26 25 23 18 14 12 9 12 15 17 18 19 17 16 15 15 17 15 13 12 12 8 8 7 8 8 8 9 9 9 11 12 12 14 14 16 16 16
24 31 36 38 42 31 26 26 26 22 15 11 12 14 17 21 23 20 18 18 17 18 14 13 11 11 11 10 9 10 10 9 9 10 9 10 12 15 16 16 15 15 16
11 24 35 39 40 37 33 30 31 29 23 17 14 14 16 20 23 22 21 20 20 19 16 14 12 11 13 12 13 14 13 13 13 13 13 14 13 14 16 17 16 15 15
12 16 20 38 37 37 33 36 30 28 28 25 21 17 16 18 22 24 24 23 23 21 18 16 17 16 17 17 17 16 16 15 14 13 13 14 13 14 16 17 17 19 19
10 13 10 27 34 33 44 41 36 36 36 36 29 22 17 19 22 24 25 26 24 22 21 22 22 22 21 19 18 16 15 15 15 15 17 16 14 16 17 17 20 21 20
10 12 12 12 19 33 30 36 41 42 44 43 35 29 23 21 21 24 26 27 25 24 26 26 24 24 21 18 17 17 18 19 20 21 23 22 20 21 22 24 22 22 22
15 14 8 1 8 26 31 34 37 41 44 44 47 38 30 26 22 23 27 28 28 27 26 25 24 21 20 18 20 22 22 23 24 25 25 25 25 25 25 27 26 25 25
15 9 8 3 2 7 19 30 34 38 50 44 43 44 40 35 30 27 27 27 28 28 28 27 24 22 23 23 23 26 26 26 26 27 27 27 27 29 32 30 27 26 25
12 11 13 13 10 9 8 8 21 22 34 32 38 48 36 34 34 31 32 32 31 30 28 26 25 26 26 26 27 27 27 26 26 27 28 28 30 30 28 25 26 26 26
11 11 15 18 14 9 3 4 5 5 10 15 29 42 40 41 46 38 37 35 34 32 30 29 26 26 27 27 25 28 31 28 24 22 20 22 21 21 19 20 23 25 26
11 11 11 16 18 15 12 12 12 11 7 7 8 24 33 41 44 44 46 42 34 36 33 25 23 24 24 26 26 25 26 24 23 22 20 17 18 19 18 19 20 20 19
12 13 14 14 13 14 14 15 16 16 9 6 4 6 33 36 33 38 42 28 30 19 20 20 17 15 19 19 18 17 18 18 17 15 14 15 16 16 15 11 10 13 14
13 10 12 16 16 16 13 12 11 16 15 7 4 11 6 14 9 11 7 26 15 18 12 11 9 10 12 13 8 6 6 7 9 9 10 11 9 8 11 14 15 13 12
13 12 10 13 15 14 14 12 10 10 14 11 9 6 12 7 7 7 8 8 9 12 14 14 15 14 11 10 9 9 9 10 11 12 13 11 12 13 14 16 16 14 15
17 15 16 14 12 13 12 12 12 12 11 10 9 7 8 7 10 11 11 14 15 16 15 15 14 14 14 15 16 15 13 12 12 13 13 14 15 17 17 16 15 15 16
17 15 14 14 16 13 12 12 12 12 12 12 13 12 11 11 12 12 13 13 14 15 15 15 15 15 16 15 14 13 14 14 13 14 15 16 17 17 15 14 14 14 14

GFSMW_700_spd_147.txt.gz
Wind_Speed
9 8 9 8 8 5 4 3 6 7 10 8 10 9 9 10 11 12 11 10 15 13 11 16 14 12 9 10 9 9 7 5 5 5 8 11 12 11 9 12 12 14 11
9 6 7 9 6 8 5 3 5 9 10 9 11 12 11 11 12 12 12 10 14 15 11 13 12 12 9 8 9 7 6 7 6 11 9 11 15 8 6 11 8 13 9
9 7 6 7 9 8 6 5 7 8 9 10 10 13 14 11 8 10 12 11 13 15 12 10 11 10 10 9 8 7 7 7 10 8 10 12 11 7 9 10 12 14 11
13 11 8 7 7 10 10 8 9 8 9 10 11 9 12 11 9 9 12 12 14 12 10 10 12 12 9 11 8 5 6 8 10 10 11 12 11 8 7 10 12 13 12
16 12 10 7 6 12 10 10 12 12 10 10 10 10 12 12 12 11 11 11 12 13 10 5 5 9 11 12 7 5 5 7 8 10 13 13 11 10 8 9 11 15 13
18 19 15 13 11 13 14 14 11 11 12 12 12 10 9 11 9 12 10 10 8 9 10 7 3 6 10 12 12 8 7 9 11 11 12 11 9 8 7 8 9 10 9
20 21 15 19 16 15 16 15 13 9 11 13 15 12 9 9 9 9 10 11 9 10 10 10 7 6 5 6 11 12 12 12 12 12 12 11 9 9 8 9 9 9 8
20 24 25 21 20 17 15 15 13 11 9 13 15 14 12 10 9 9 9 9 9 9 13 12 10 10 9 9 10 12 11 11 12 12 12 11 10 8 8 10 9 7 7
16 25 29 28 26 20 17 14 13 11 10 11 13 14 14 13 12 13 10 10 10 10 12 14 13 13 14 12 11 11 11 10 11 11 10 10 10 11 10 10 10 10 10
9 7 25 31 32 24 20 19 17 14 10 9 11 14 14 14 15 15 12 12 12 13 13 13 13 14 16 14 13 11 12 12 10 10 9 11 13 13 11 10 12 12 12
12 10 13 29 31 30 29 24 21 19 18 14 11 12 14 16 17 17 16 15 16 14 13 13 14 14 13 14 13 13 13 11 10 9 9 10 12 13 10 11 13 14 13
7 12 14 23 30 30 30 27 24 21 18 17 15 12 12 17 20 19 19 18 17 16 16 16 14 14 13 16 15 14 13 12 11 11 11 13 13 13 14 13 12 13 13
7 8 13 14 29 30 32 33 30 25 22 19 17 17 14 13 18 21 20 20 21 20 19 18 17 16 19 18 18 15 15 13 14 13 13 14 14 13 13 14 13 13 14
10 8 5 4 17 32 33 36 30 31 28 26 23 20 18 15 13 18 21 23 23 23 23 22 21 20 19 20 19 18 17 16 15 14 14 15 14 14 16 17 17 16 17
5 10 6 3 5 18 31 38 35 35 35 33 31 28 25 21 20 18 20 23 26 28 28 27 24 23 23 22 23 20 18 17 18 16 16 16 17 18 20 21 21 22 22
7 10 14 17 10 10 23 30 34 35 38 38 34 33 33 30 27 25 23 25 27 29 30 30 29 28 25 24 24 21 19 19 19 19 19 19 19 22 24 25 26 26 27
10 12 13 10 4 4 9 21 29 38 42 41 39 35 36 37 31 30 29 28 26 29 31 31 30 29 29 27 25 23 21 22 21 21 22 23 24 27 27 28 30 30 31
13 12 11 9 10 4 0 10 20 32 40 41 41 40 38 39 37 37 35 34 31 29 30 33 32 31 30 27 25 23 24 25 23 24 24 26 27 29 28 30 33 33 32
15 15 11 10 14 12 5 6 8 11 35 35 40 40 38 39 42 42 41 41 37 33 32 33 35 34 32 30 27 26 26 26 27 26 27 29 29 29 31 30 28 30 26
19 16 13 11 12 17 12 6 2 2 10 24 25 21 24 32 37 44 46 42 43 42 39 35 35 34 32 30 27 28 30 28 28 29 30 29 31 29 28 27 27 23 19
17 15 14 13 12 15 19 16 11 6 3 5 12 10 17 26 34 45 40 40 46 44 42 40 35 32 31 31 33 33 31 29 27 24 28 29 25 23 23 22 21 18 18
14 14 13 13 12 12 14 18 18 15 13 11 13 15 17 12 16 27 36 36 41 43 42 49 41 35 34 34 35 35 36 24 19 19 21 20 17 16 14 13 11 10 10
13 13 11 12 11 11 12 12 13 16 15 15 16 16 17 18 11 12 14 19 25 30 41 45 43 41 33 50 32 39 20 18 9 13 10 9 11 12 11 11 11 12 15
16 13 12 12 12 10 11 12 12 13 15 16 10 4 8 12 10 5 5 5 8 7 14 16 23 28 22 21 21 26 32 18 10 13 12 12 13 13 13 14 15 16 18
20 16 13 13 14 13 9 9 10 11 11 11 16 9 4 6 14 15 7 6 9 9 12 12 11 8 8 9 6 5 8 13 18 18 16 15 13 13 14 16 17 17 16
20 15 16 13 12 13 11 6 8 8 9 8 18 11 8 11 7 5 7 6 5 5 6 11 10 11 11 11 12 14 16 17 17 16 15 15 15 14 16 17 15 13 11